Location: D�derode
(51.8092°N, 10.1065°E)
Time: 20:13:00
(UTC+00:00)

USA 267 - Pass Details

Date: 01 December 2020
Orbit: 1100 x 1107 km, 123.0° (Epoch: 18 January)

Event Time Altitude Azimuth Distance (km) Brightness Sun altitude
Exits shadow 17:34:03 32° 104° (ESE) 1,783 3.9 -20.9°
Maximum altitude 17:37:20 79° 23° (NNE) 1,127 3.2 -21.4°
Drops below altitude 10° 17:43:54 10° 298° (WNW) 2,970 6.3 -22.4°
Sets 17:46:23 0° 297° (WNW) 3,930 7.0 -22.8°
